Regional Weather Roundup
Issued by NWS Upton, NY

Home | Current Version | Previous Version | Text Only | Print | Product List | Glossary On
Versions: 1 2 3 4 5 6 7 8 9 10 11 12 13 14 15 16 17 18 19 20 21 22 23 24 25 26 27 28 29 30 31 32 33 34 35 36 37 38 39 40 41 42 43 44 45 46 47 48 49 50
000
ASUS41 KOKX 310405
RWROKX

REGIONAL WEATHER ROUNDUP
NATIONAL WEATHER SERVICE NEW YORK NY
1200 AM EDT WED AUG 31 2016

NOTE: "FAIR" INDICATES FEW OR NO CLOUDS BELOW 12,000 FEET WITH NO
SIGNIFICANT WEATHER AND/OR OBSTRUCTIONS TO VISIBILITY.

NYZ071-072-176-178-NJZ106-104-310500-
NEW YORK CITY METRO AREA

CITY           SKY/WX    TMP DP  RH WIND       PRES   REMARKS
Central Park   CLOUDY    75  65  70 CALM      30.08F
LaGuardia APRT CLOUDY    77  70  79 S8        30.05S
Kennedy INTL   CLOUDY    75  71  87 S8        30.06F
Newark/Liberty CLOUDY    75  69  81 S3        30.05F
Bronx Bot Gard   N/A     73  66  78 E2        30.08R
Wall St Helipt CLOUDY    75  70  83 W3        30.06S
Teterboro      CLOUDY    75  67  76 S5        30.04F
$$

NYZ177-179-078>081-310500-
LONG ISLAND NEW YORK

CITY           SKY/WX    TMP DP  RH WIND       PRES   REMARKS
Farmingdale    CLOUDY    75  69  81 S7        30.06S
MacArthur/ISP  CLOUDY    74  68  81 S6        30.06R
Shirley        CLOUDY    71  67  87 S5        30.07S
Riverhead      NOT AVBL
Westhampton    CLOUDY    64  61  90 CALM      30.08S
Southampton      N/A     73  68  83 SW5       30.02S
Bridgehampton  NOT AVBL
East Hampton   FAIR      69  66  90 SW3       30.05F
Montauk          N/A     72  68  87 S5        30.07S
$$

NYZ052-065-067-310500-
HUDSON VALLEY

CITY           SKY/WX    TMP DP  RH WIND       PRES   REMARKS
White Plains   CLOUDY    69  66  90 CALM      30.06S
Newburgh       NOT AVBL
Montgomery     CLOUDY    63  61  93 SW3       30.05F
Poughkeepsie   CLOUDY    65  61  87 CALM      30.03S
Albany         PTCLDY    66  59  78 S3        30.03F
$$

NJZ001-105-106-008-010-013-015-019>022-104-310500-
NEW JERSEY

CITY           SKY/WX    TMP DP  RH WIND       PRES   REMARKS
Newark/Liberty CLOUDY    75  69  81 S3        30.05F
Teterboro      CLOUDY    75  67  76 S5        30.04F
Caldwell       MOCLDY    74  66  76 CALM      30.06S
Morristown     PTCLDY    64  63  94 CALM      30.06S
Somerville     MOCLDY    67  65  93 CALM      30.04F
Linden         FAIR      74  69  82 CALM      30.07S
Sussex         MOCLDY    65  63  93 CALM      30.06F
Abdover          N/A     65  63  93 CALM      30.07S
Trenton        PTCLDY    73  69  87 S5        30.06S
Millville      CLEAR     68  68 100 CALM      30.06S FOG
Atlantic City  PTCLDY    71  68  90 CALM      30.06S
Wrightstown    PTCLDY    72  70  94 SE2       30.04S
Toms River     PTCLDY    68  65  90 CALM      30.07R
Belmar         PTCLDY    73  71  93 SE5       30.07F
$$

PAZ047>061-062-071-310500-
EASTERN PENNSYLVANIA

CITY           SKY/WX    TMP DP  RH WIND       PRES   REMARKS
Philadelphia   MOCLDY    75  71  87 E5        30.06R
Allentown      CLOUDY    67  60  78 NW5       30.06S
Scranton       PTCLDY    67  60  78 E6        30.07S
$$

CTZ002-004>006-009-010-012-RIZ004-006-007-MAZ004-011-015-310500-
SOUTHERN NEW ENGLAND
 IN CT

CITY           SKY/WX    TMP DP  RH WIND       PRES   REMARKS
Bradley INTL   CLOUDY    65  58  78 CALM      30.05S
Hartford       CLOUDY    72  65  78 S3        30.04S
Danbury        PTCLDY    67  63  87 CALM      30.08S
Wtrbury/Oxford   N/A     68  61  77 SW5       30.08S
Bridgeport     PTCLDY    76  67  73 SW12      30.05F
Meriden        MOCLDY    67  63  87 CALM      30.06R
New Haven      MOCLDY    74  66  76 SW6       30.06S
Chester        FAIR      70  64  83 CALM      30.07R
Groton         CLOUDY    71  66  84 SW3       30.05S
Wilimantic     CLOUDY    65  64  97 NE3       30.06S

 IN RI

CITY           SKY/WX    TMP DP  RH WIND       PRES   REMARKS
Providence     PTCLDY    67  63  87 S5        30.06S
Block Island   CLOUDY    72  67  84 SW9       30.06F
Westerly       CLOUDY    68  64  87 CALM      30.06F
 IN MA

CITY           SKY/WX    TMP DP  RH WIND       PRES   REMARKS
Boston         CLEAR     71  63  75 SW10      30.03F
Worcester      CLEAR     63  57  81 SW7       30.07F
Westfield      CLEAR     61  59  93 CALM      30.04F
Provincetown   CLEAR     68  64  87 S9        30.06S
Nantucket      CLEAR     67  63  87 S9        30.07S
$$

ANZ330-335-338-340-345-350-353-355-310500-
COASTAL MARINE OBSERVATIONS


STATION/POSITION TIME  SKY/WX   TEMP    WIND        PRES    VSBY  WAVE
                                AIR SEA DIR/SP/G                  HT/PER
                 (UTC)          (F)     (DEG/KT/KT) (MB)    (MI)  (FT/S)
NY HARB ENTRANCE 0250            76 77  180/  8/ 10 1017.6          4/12
20S FIRE ISLAND  0250            76 76  160/ 12/ 14 1017.5          5/11
GREAT SOUTH BAY  0315            76 80  210/ 10/ 10   N/A
23 SSW MONTAUK P 0250            75 78  210/ 10/ 12 1018.4          4/11
15 E BARNEGAT LI 0300               77                N/A           4/12
HUDSON CANYON    0250            77 79              1017.9          4/11
KINGS POINT      0300            76 77              1017.6
EXECUTION ROCKS  0300            76     190/  8/ 10   N/A
CENTRAL LI SOUND 0300            74 76  210/ 12/ 14   N/A           2/ 3
EASTERN LI SOUND 0300            72 71  230/  6/  8   N/A
ROBBINS REEF     0318            75     170/  5/  6 1017.1
$$


>>>>>>>>>>>>>>>>>>>>>>>>>>>> KEY <<<<<<<<<<<<<<<<<<<<<<<<<<<
>                                                          <
>     SKY/WX - Sky Condition/Present Weather               <
>     TMP    - Temperature in Fahrenheit                   <
>     DP     - Dew Point in Fahrenheit                     <
>     RH     - Relative Humidity in Percent                <
>     WIND   - Direction (from) and Speed in MPH           <
>     PRES   - Mean Sea Level Pressure (inches of Hg)      <
>     WCI    - Wind Chill Index                            <
>     VSB    - VISIBILITY IN MILES                         <
>     HX     - HEAT INDEX                                  <
>     TC     - TEMPERATURE IN CELSIUS                      <
>     VRB    - VARIABLE WIND DIRECTION                     <
>                                                          <
>>>>>>>>>>>>>>>>>>>>>>>>>>>> KEY <<<<<<<<<<<<<<<<<<<<<<<<<<<



USA.gov is the U.S. government's official web portal to all federal, state and local government web resources and services.